Location: Izdebno
(52.6670°N, 16.2170°E)
Time: 02:48:13
(UTC+02:00)

Transit 4A - Pass Details

Date: 01 March 2024
Orbit: 871 x 972 km, 66.8° (Epoch: 22 April)

Event Time Altitude Azimuth Distance (km) Brightness Sun altitude
Rises 05:44:12 0° 310° (NW) 3,535 - -9.4°
Exits shadow 05:44:49 - 312° (NW) 3,330 10.4 -9.3°
Reaches altitude 10° 05:47:15 10° 324° (NW) 2,576 9.9 -8.9°
Maximum altitude 05:52:00 24° 17° (NNE) 1,748 9.6 -8.2°
Drops below altitude 10° 05:56:43 10° 71° (ENE) 2,535 11.5 -7.5°
Sets 05:59:41 0° 85° (E) 3,465 13.2 -7.0°
